COSMOS 2024 (ETALON 2)

Last updated on Sun Oct 06 2024 00:03:25 GMT+0000 (Coordinated Universal Time)

1 20026U 89039C 24279.44546234 -.00000046 00000+0 00000+0 0 9994 2 20026 65.2849 331.8038 0019755 216.7479 154.5819 2.13204537275290
UTC large
Height (km)
Speed (km/s)
/
Latitude / Longitude
Inclination (degrees)
Orbital Period (minutes)
Azimuth
Elevation
Range (km)
Doppler Factor

Next 0 passes for location: London (51.5072 / 0.1276)

Sorry there are no passes over London.